AAL514 KLAX-KORD

Flight info

Callsign AAL514
Flight time 3h 33m
Altitude 35000
Route ORCKA5 LAS J146 DVC PUB HYS IRK BENKY6
Aircraft A321/M-SDE3FGHIRWY/LB1

Departure

Time 2026-04-20 20:53
Airport Los Angeles International Airport (KLAX)

Arrival

Time 2026-04-21 00:26
Airport Chicago O'Hare International Airport (KORD)
Time Latitude Longitude Altitude Speed Heading
2026-04-20 19:45 33.93969 -118.40657 96 ft 0 kts 354°
2026-04-20 20:43 33.93965 -118.40657 97 ft 3 kts 354°
2026-04-20 20:43 33.93939 -118.40653 96 ft 4 kts 353°
2026-04-20 20:43 33.93914 -118.40653 96 ft 4 kts 25°
2026-04-20 20:44 33.93896 -118.40672 97 ft 4 kts 69°
2026-04-20 20:44 33.93892 -118.40690 97 ft 1 kts 82°
2026-04-20 20:44 33.93891 -118.40692 97 ft 1 kts 82°
2026-04-20 20:47 33.93892 -118.40688 97 ft 1 kts 83°
2026-04-20 20:47 33.93895 -118.40657 97 ft 7 kts 83°
2026-04-20 20:48 33.93904 -118.40569 97 ft 14 kts 83°
2026-04-20 20:48 33.93917 -118.40427 98 ft 20 kts 83°
2026-04-20 20:48 33.93936 -118.40244 99 ft 19 kts 83°
2026-04-20 20:48 33.93954 -118.40068 99 ft 23 kts 82°
2026-04-20 20:49 33.93976 -118.39855 97 ft 28 kts 82°
2026-04-20 20:49 33.94005 -118.39603 96 ft 32 kts 84°
2026-04-20 20:49 33.94029 -118.39323 97 ft 31 kts 82°
2026-04-20 20:49 33.94050 -118.39113 99 ft 15 kts 84°
2026-04-20 20:50 33.94005 -118.38993 100 ft 17 kts 128°
2026-04-20 20:50 33.93997 -118.38842 102 ft 20 kts 83°
2026-04-20 20:50 33.94016 -118.38655 103 ft 24 kts 83°
2026-04-20 20:50 33.94037 -118.38441 103 ft 17 kts 83°
2026-04-20 20:51 33.94054 -118.38280 103 ft 22 kts 83°
2026-04-20 20:51 33.94072 -118.38121 103 ft 13 kts 81°
2026-04-20 20:51 33.94078 -118.38036 103 ft 8 kts 105°
2026-04-20 20:51 33.94075 -118.38029 103 ft 1 kts 113°
2026-04-20 20:52 33.94067 -118.38017 102 ft 4 kts 136°
2026-04-20 20:52 33.94033 -118.38000 107 ft 7 kts 167°
2026-04-20 20:52 33.93979 -118.38056 110 ft 20 kts 254°
2026-04-20 20:52 33.93927 -118.38505 110 ft 88 kts 263°
2026-04-20 20:53 33.93826 -118.39485 108 ft 145 kts 263°
2026-04-20 20:53 33.93691 -118.40778 554 ft 152 kts 261°
2026-04-20 20:53 33.93554 -118.42053 1219 ft 156 kts 261°
2026-04-20 20:53 33.93426 -118.43363 1956 ft 161 kts 264°
2026-04-20 20:54 33.93238 -118.44757 2402 ft 179 kts 253°
2026-04-20 20:54 33.92529 -118.46051 2600 ft 198 kts 215°
2026-04-20 20:54 33.91172 -118.46608 2806 ft 220 kts 178°
2026-04-20 20:54 33.89643 -118.46098 3082 ft 242 kts 146°
2026-04-20 20:55 33.88465 -118.44582 3457 ft 257 kts 117°
2026-04-20 20:55 33.87981 -118.42500 4064 ft 264 kts 92°
2026-04-20 20:55 33.88330 -118.40322 4719 ft 272 kts 66°
2026-04-20 20:55 33.89468 -118.38494 5247 ft 277 kts 47°
2026-04-20 20:56 33.90831 -118.36816 5930 ft 282 kts 47°
2026-04-20 20:56 33.92204 -118.35109 6598 ft 286 kts 48°
2026-04-20 20:56 33.93592 -118.33371 7220 ft 290 kts 48°
2026-04-20 20:56 33.94979 -118.31632 7867 ft 293 kts 48°
2026-04-20 20:57 33.96397 -118.29850 8516 ft 296 kts 48°
2026-04-20 20:57 33.97831 -118.28052 9171 ft 300 kts 48°
2026-04-20 20:57 33.99283 -118.26227 9826 ft 303 kts 48°
2026-04-20 20:57 34.00756 -118.24370 10284 ft 314 kts 48°
2026-04-20 20:58 34.02317 -118.22396 10413 ft 336 kts 48°
2026-04-20 20:58 34.03980 -118.20293 10518 ft 357 kts 48°
2026-04-20 20:58 34.05741 -118.18072 10648 ft 376 kts 48°
2026-04-20 20:58 34.07574 -118.15763 11039 ft 385 kts 48°
2026-04-20 20:59 34.09438 -118.13418 11577 ft 390 kts 47°
2026-04-20 20:59 34.11322 -118.11046 12151 ft 394 kts 48°
2026-04-20 20:59 34.13035 -118.08448 12688 ft 397 kts 58°
2026-04-20 20:59 34.14592 -118.05680 13227 ft 401 kts 58°
2026-04-20 21:00 34.16166 -118.02875 13776 ft 406 kts 58°
2026-04-20 21:00 34.17761 -118.00035 14283 ft 410 kts 58°
2026-04-20 21:00 34.19371 -117.97168 14813 ft 415 kts 58°
2026-04-20 21:00 34.20999 -117.94267 15336 ft 419 kts 58°
2026-04-20 21:01 34.22107 -117.92293 15679 ft 422 kts 58°
2026-04-20 21:01 34.23462 -117.89889 16116 ft 426 kts 57°
2026-04-20 21:01 34.25137 -117.86922 16628 ft 430 kts 57°
2026-04-20 21:01 34.26825 -117.83919 17141 ft 434 kts 57°
2026-04-20 21:02 34.28525 -117.80884 17675 ft 438 kts 58°
2026-04-20 21:02 34.30236 -117.77816 18178 ft 443 kts 58°
2026-04-20 21:02 34.31964 -117.74709 18581 ft 447 kts 58°
2026-04-20 21:02 34.33703 -117.71585 19071 ft 449 kts 57°
2026-04-20 21:03 34.35458 -117.68445 19515 ft 451 kts 57°
2026-04-20 21:03 34.37260 -117.65327 19938 ft 454 kts 56°
2026-04-20 21:03 34.39113 -117.62230 20401 ft 455 kts 55°
2026-04-20 21:03 34.40995 -117.59140 20811 ft 457 kts 54°
2026-04-20 21:04 34.42889 -117.56039 21244 ft 459 kts 54°
2026-04-20 21:04 34.44787 -117.52910 21632 ft 462 kts 55°
2026-04-20 21:04 34.46681 -117.49758 22030 ft 464 kts 55°
2026-04-20 21:04 34.48575 -117.46577 22413 ft 466 kts 55°
2026-04-20 21:05 34.50473 -117.43371 22802 ft 469 kts 55°
2026-04-20 21:05 34.52374 -117.40147 23174 ft 471 kts 55°
2026-04-20 21:05 34.54286 -117.36907 23533 ft 474 kts 55°
2026-04-20 21:05 34.56210 -117.33653 23869 ft 476 kts 55°
2026-04-20 21:06 34.58148 -117.30379 24198 ft 478 kts 55°
2026-04-20 21:06 34.60090 -117.27092 24525 ft 480 kts 55°
2026-04-20 21:06 34.62038 -117.23798 24847 ft 481 kts 55°
2026-04-20 21:06 34.63996 -117.20493 25156 ft 483 kts 55°
2026-04-20 21:07 34.65929 -117.17231 25442 ft 485 kts 55°
2026-04-20 21:07 34.67913 -117.13875 25742 ft 486 kts 56°
2026-04-20 21:07 34.69884 -117.10532 26030 ft 488 kts 56°
2026-04-20 21:07 34.71863 -117.07168 26293 ft 490 kts 56°
2026-04-20 21:08 34.73843 -117.03792 26587 ft 491 kts 56°
2026-04-20 21:08 34.75830 -117.00403 26893 ft 493 kts 56°
2026-04-20 21:08 34.77822 -116.97006 27187 ft 495 kts 56°
2026-04-20 21:08 34.79825 -116.93589 27499 ft 497 kts 56°
2026-04-20 21:09 34.81833 -116.90161 27782 ft 498 kts 56°
2026-04-20 21:09 34.83842 -116.86727 28159 ft 497 kts 56°
2026-04-20 21:09 34.85843 -116.83304 28555 ft 496 kts 56°
2026-04-20 21:09 34.87839 -116.79887 28949 ft 495 kts 56°
2026-04-20 21:10 34.89830 -116.76474 29339 ft 494 kts 56°
2026-04-20 21:10 34.91845 -116.73090 29714 ft 494 kts 53°
2026-04-20 21:10 34.94130 -116.69952 30069 ft 494 kts 48°
2026-04-20 21:10 34.96467 -116.66888 30383 ft 493 kts 49°
2026-04-20 21:11 34.98800 -116.63822 30707 ft 492 kts 49°
2026-04-20 21:11 35.01117 -116.60770 31031 ft 491 kts 49°
2026-04-20 21:11 35.03434 -116.57712 31357 ft 489 kts 49°
2026-04-20 21:11 35.05745 -116.54663 31688 ft 488 kts 49°
2026-04-20 21:12 35.08019 -116.51664 32014 ft 487 kts 49°
2026-04-20 21:12 35.10345 -116.48593 32340 ft 486 kts 49°
2026-04-20 21:12 35.12636 -116.45567 32658 ft 485 kts 49°
2026-04-20 21:12 35.14922 -116.42542 32972 ft 483 kts 49°
2026-04-20 21:13 35.17201 -116.39520 33284 ft 482 kts 49°
2026-04-20 21:13 35.19469 -116.36506 33590 ft 481 kts 49°
2026-04-20 21:13 35.21730 -116.33496 33904 ft 480 kts 49°
2026-04-20 21:13 35.23985 -116.30492 34168 ft 479 kts 49°
2026-04-20 21:14 35.26238 -116.27488 34417 ft 478 kts 49°
2026-04-20 21:14 35.28453 -116.24539 34660 ft 477 kts 49°
2026-04-20 21:14 35.30697 -116.21555 34871 ft 477 kts 49°
2026-04-20 21:14 35.32940 -116.18571 34935 ft 476 kts 49°
2026-04-20 21:15 35.37420 -116.12600 34944 ft 475 kts 49°
2026-04-20 21:15 35.41887 -116.06625 34947 ft 475 kts 49°
2026-04-20 21:16 35.46352 -116.00650 34950 ft 475 kts 49°
2026-04-20 21:16 35.50806 -115.94663 34957 ft 475 kts 49°
2026-04-20 21:17 35.55264 -115.88666 34970 ft 476 kts 49°
2026-04-20 21:17 35.59718 -115.82655 34977 ft 476 kts 49°
2026-04-20 21:18 35.64176 -115.76632 34987 ft 476 kts 49°
2026-04-20 21:18 35.68610 -115.70573 34991 ft 476 kts 49°
2026-04-20 21:19 35.73014 -115.64480 34994 ft 476 kts 49°
2026-04-20 21:20 35.78910 -115.56317 34986 ft 477 kts 49°
2026-04-20 21:20 35.83290 -115.50274 34990 ft 477 kts 49°
2026-04-20 21:21 35.87723 -115.44157 34992 ft 477 kts 49°
2026-04-20 21:21 35.92145 -115.38037 34999 ft 478 kts 49°
2026-04-20 21:22 35.96555 -115.31911 35009 ft 478 kts 49°
2026-04-20 21:22 36.00969 -115.25754 35023 ft 478 kts 49°
2026-04-20 21:23 36.05375 -115.19597 34997 ft 478 kts 50°
2026-04-20 21:23 36.08939 -115.12724 34998 ft 475 kts 68°
2026-04-20 21:24 36.11312 -115.05105 34995 ft 475 kts 70°
2026-04-20 21:24 36.13675 -114.97483 34931 ft 475 kts 70°
2026-04-20 21:25 36.16033 -114.89844 34932 ft 475 kts 70°
2026-04-20 21:25 36.18373 -114.82198 34921 ft 475 kts 70°
2026-04-20 21:26 36.20718 -114.74552 34916 ft 475 kts 70°
2026-04-20 21:26 36.23062 -114.66915 34905 ft 475 kts 70°
2026-04-20 21:27 36.25397 -114.59268 34895 ft 475 kts 70°
2026-04-20 21:27 36.27720 -114.51601 34901 ft 475 kts 70°
2026-04-20 21:28 36.30034 -114.43937 34908 ft 474 kts 69°
2026-04-20 21:28 36.32356 -114.36289 34908 ft 474 kts 69°
2026-04-20 21:29 36.34684 -114.28584 34912 ft 473 kts 69°
2026-04-20 21:29 36.36986 -114.20937 34913 ft 473 kts 69°
2026-04-20 21:30 36.39277 -114.13292 34923 ft 473 kts 69°
2026-04-20 21:30 36.41563 -114.05650 34929 ft 472 kts 69°
2026-04-20 21:31 36.43849 -113.97995 34938 ft 471 kts 69°
2026-04-20 21:31 36.46129 -113.90365 34947 ft 471 kts 69°
2026-04-20 21:32 36.48398 -113.82725 34955 ft 471 kts 69°
2026-04-20 21:32 36.50653 -113.75089 34960 ft 470 kts 69°
2026-04-20 21:33 36.52886 -113.67514 34964 ft 470 kts 69°
2026-04-20 21:33 36.55136 -113.59881 34969 ft 470 kts 68°
2026-04-20 21:34 36.57379 -113.52248 34975 ft 470 kts 69°
2026-04-20 21:34 36.59615 -113.44608 34979 ft 470 kts 68°
2026-04-20 21:35 36.61842 -113.36962 34983 ft 470 kts 69°
2026-04-20 21:35 36.64070 -113.29319 34986 ft 469 kts 69°
2026-04-20 21:36 36.66304 -113.21626 35003 ft 468 kts 69°
2026-04-20 21:36 36.68505 -113.14003 35034 ft 468 kts 69°
2026-04-20 21:37 36.70592 -113.06743 35060 ft 467 kts 68°
2026-04-20 21:37 36.72780 -112.99138 35078 ft 466 kts 69°
2026-04-20 21:38 36.74965 -112.91527 35083 ft 465 kts 69°
2026-04-20 21:38 36.77134 -112.83934 35077 ft 465 kts 69°
2026-04-20 21:39 36.79287 -112.76393 35061 ft 464 kts 69°
2026-04-20 21:39 36.81460 -112.68764 35042 ft 463 kts 69°
2026-04-20 21:40 36.83591 -112.61232 35020 ft 463 kts 69°
2026-04-20 21:40 36.85731 -112.53655 35014 ft 462 kts 69°
2026-04-20 21:41 36.87866 -112.46080 35025 ft 462 kts 69°
2026-04-20 21:41 36.90004 -112.38465 35034 ft 461 kts 69°
2026-04-20 21:42 36.92120 -112.30895 35039 ft 461 kts 69°
2026-04-20 21:42 36.94245 -112.23337 35045 ft 460 kts 68°
2026-04-20 21:43 36.96357 -112.15789 35046 ft 460 kts 68°
2026-04-20 21:43 36.98461 -112.08238 35044 ft 459 kts 69°
2026-04-20 21:44 37.00550 -112.00691 35033 ft 459 kts 69°
2026-04-20 21:44 37.02632 -111.93148 35029 ft 458 kts 69°
2026-04-20 21:45 37.04700 -111.85669 35025 ft 457 kts 68°
2026-04-20 21:45 37.06772 -111.78140 35035 ft 457 kts 68°
2026-04-20 21:46 37.08832 -111.70618 35042 ft 456 kts 69°
2026-04-20 21:46 37.10891 -111.63101 35054 ft 456 kts 69°
2026-04-20 21:47 37.12943 -111.55591 35054 ft 455 kts 68°
2026-04-20 21:47 37.14991 -111.48078 35049 ft 455 kts 69°
2026-04-20 21:48 37.17025 -111.40567 35036 ft 455 kts 68°
2026-04-20 21:48 37.19060 -111.33065 35020 ft 454 kts 68°
2026-04-20 21:49 37.21087 -111.25555 34993 ft 454 kts 68°
2026-04-20 21:49 37.23108 -111.18051 34976 ft 454 kts 68°
2026-04-20 21:50 37.25119 -111.10553 34974 ft 454 kts 69°
2026-04-20 21:50 37.27120 -111.03043 34972 ft 454 kts 69°
2026-04-20 21:51 37.29116 -110.95535 34976 ft 453 kts 69°
2026-04-20 21:51 37.31114 -110.88041 34976 ft 453 kts 69°
2026-04-20 21:52 37.33105 -110.80538 34975 ft 453 kts 69°
2026-04-20 21:52 37.35086 -110.73022 34971 ft 453 kts 69°
2026-04-20 21:53 37.37060 -110.65509 34976 ft 452 kts 69°
2026-04-20 21:53 37.39031 -110.57997 34977 ft 452 kts 69°
2026-04-20 21:54 37.40998 -110.50491 34980 ft 452 kts 69°
2026-04-20 21:54 37.42954 -110.42986 34984 ft 452 kts 69°
2026-04-20 21:55 37.44908 -110.35469 34986 ft 451 kts 69°
2026-04-20 21:55 37.46861 -110.27963 34997 ft 452 kts 69°
2026-04-20 21:56 37.48813 -110.20444 35011 ft 452 kts 69°
2026-04-20 21:56 37.50761 -110.12927 35014 ft 451 kts 69°
2026-04-20 21:57 37.52686 -110.05410 35027 ft 451 kts 69°
2026-04-20 21:57 37.54286 -109.99153 35026 ft 451 kts 69°
2026-04-20 21:58 37.56204 -109.91634 35046 ft 451 kts 69°
2026-04-20 21:58 37.58122 -109.84107 35085 ft 450 kts 69°
2026-04-20 21:59 37.60038 -109.76598 35126 ft 449 kts 69°
2026-04-20 21:59 37.61941 -109.69097 35169 ft 449 kts 69°
2026-04-20 22:00 37.63840 -109.61593 35183 ft 449 kts 69°
2026-04-20 22:00 37.65732 -109.54086 35193 ft 449 kts 69°
2026-04-20 22:01 37.67606 -109.46627 35193 ft 448 kts 69°
2026-04-20 22:01 37.69484 -109.39122 35170 ft 448 kts 69°
2026-04-20 22:02 37.71357 -109.31617 35137 ft 448 kts 69°
2026-04-20 22:02 37.73230 -109.24109 35095 ft 448 kts 69°
2026-04-20 22:03 37.75099 -109.16562 35062 ft 447 kts 69°
2026-04-20 22:03 37.76953 -109.09055 35031 ft 447 kts 69°
2026-04-20 22:04 37.78810 -109.01541 35036 ft 448 kts 69°
2026-04-20 22:04 37.80651 -108.94012 35037 ft 450 kts 72°
2026-04-20 22:05 37.81743 -108.86232 35032 ft 453 kts 78°
2026-04-20 22:05 37.82740 -108.78351 35029 ft 454 kts 78°
2026-04-20 22:06 37.83749 -108.70462 35031 ft 455 kts 78°
2026-04-20 22:06 37.84740 -108.62585 35032 ft 456 kts 78°
2026-04-20 22:07 37.85725 -108.54657 35035 ft 457 kts 78°
2026-04-20 22:07 37.86710 -108.46711 35041 ft 458 kts 79°
2026-04-20 22:08 37.87692 -108.38737 35050 ft 459 kts 79°
2026-04-20 22:08 37.88664 -108.30756 35105 ft 460 kts 79°
2026-04-20 22:09 37.89640 -108.22727 35177 ft 461 kts 79°
2026-04-20 22:09 37.90619 -108.14692 35246 ft 462 kts 79°
2026-04-20 22:10 37.91593 -108.06657 35307 ft 462 kts 80°
2026-04-20 22:10 37.92553 -107.98595 35344 ft 463 kts 80°
2026-04-20 22:11 37.93511 -107.90515 35345 ft 465 kts 80°
2026-04-20 22:11 37.94471 -107.82408 35347 ft 465 kts 80°
2026-04-20 22:12 37.95424 -107.74295 35314 ft 466 kts 81°
2026-04-20 22:12 37.96379 -107.66164 35275 ft 467 kts 80°
2026-04-20 22:13 37.97327 -107.58012 35232 ft 468 kts 81°
2026-04-20 22:13 37.98265 -107.49852 35194 ft 468 kts 81°
2026-04-20 22:14 37.99198 -107.41671 35175 ft 469 kts 81°
2026-04-20 22:14 38.00134 -107.33485 35176 ft 469 kts 81°
2026-04-20 22:15 38.01066 -107.25299 35174 ft 469 kts 81°
2026-04-20 22:15 38.01984 -107.17108 35166 ft 469 kts 81°
2026-04-20 22:16 38.02895 -107.08911 35158 ft 469 kts 81°
2026-04-20 22:16 38.03807 -107.00704 35156 ft 470 kts 81°
2026-04-20 22:17 38.04717 -106.92492 35150 ft 470 kts 81°
2026-04-20 22:17 38.05621 -106.84322 35148 ft 471 kts 81°
2026-04-20 22:18 38.06516 -106.76073 35146 ft 472 kts 81°
2026-04-20 22:18 38.07400 -106.67819 35144 ft 472 kts 81°
2026-04-20 22:19 38.08290 -106.59508 35135 ft 472 kts 81°
2026-04-20 22:19 38.09171 -106.51247 35129 ft 472 kts 81°
2026-04-20 22:20 38.10049 -106.42984 35114 ft 472 kts 81°
2026-04-20 22:20 38.10918 -106.34764 35100 ft 473 kts 81°
2026-04-20 22:21 38.11787 -106.26490 35081 ft 473 kts 81°
2026-04-20 22:21 38.12642 -106.18255 35064 ft 473 kts 81°
2026-04-20 22:22 38.13493 -106.09958 35050 ft 474 kts 82°
2026-04-20 22:22 38.14337 -106.01661 35045 ft 474 kts 82°
2026-04-20 22:23 38.15182 -105.93349 35040 ft 474 kts 82°
2026-04-20 22:23 38.16030 -105.85034 35041 ft 475 kts 82°
2026-04-20 22:24 38.16864 -105.76691 35049 ft 476 kts 82°
2026-04-20 22:24 38.17691 -105.68337 35053 ft 477 kts 82°
2026-04-20 22:25 38.18519 -105.59981 35050 ft 477 kts 82°
2026-04-20 22:25 38.19335 -105.51609 35047 ft 478 kts 82°
2026-04-20 22:26 38.20145 -105.43219 35051 ft 478 kts 82°
2026-04-20 22:26 38.20960 -105.34818 35045 ft 479 kts 82°
2026-04-20 22:27 38.22169 -105.22184 35037 ft 480 kts 82°
2026-04-20 22:27 38.22967 -105.13756 35023 ft 480 kts 82°
2026-04-20 22:28 38.23755 -105.05310 35011 ft 481 kts 82°
2026-04-20 22:28 38.24538 -104.96866 34998 ft 481 kts 82°
2026-04-20 22:29 38.25326 -104.88403 34987 ft 481 kts 82°
2026-04-20 22:29 38.26110 -104.79943 34984 ft 481 kts 82°
2026-04-20 22:30 38.26883 -104.71479 34962 ft 481 kts 82°
2026-04-20 22:30 38.27641 -104.63012 34955 ft 482 kts 82°
2026-04-20 22:31 38.28389 -104.54596 34947 ft 482 kts 82°
2026-04-20 22:31 38.29145 -104.46123 34945 ft 482 kts 82°
2026-04-20 22:32 38.29965 -104.37666 34952 ft 481 kts 80°
2026-04-20 22:32 38.31084 -104.29269 34951 ft 481 kts 78°
2026-04-20 22:33 38.32280 -104.20885 34951 ft 481 kts 78°
2026-04-20 22:33 38.33392 -104.12473 34946 ft 482 kts 79°
2026-04-20 22:34 38.34442 -104.04038 34940 ft 482 kts 79°
2026-04-20 22:34 38.35488 -103.95607 34935 ft 482 kts 79°
2026-04-20 22:35 38.36549 -103.87171 34932 ft 482 kts 79°
2026-04-20 22:35 38.37608 -103.78742 34928 ft 483 kts 79°
2026-04-20 22:36 38.38654 -103.70318 34935 ft 483 kts 79°
2026-04-20 22:36 38.39698 -103.61854 34935 ft 484 kts 79°
2026-04-20 22:37 38.40731 -103.53371 34935 ft 484 kts 79°
2026-04-20 22:37 38.41766 -103.44878 34934 ft 485 kts 79°
2026-04-20 22:38 38.42793 -103.36380 34936 ft 485 kts 79°
2026-04-20 22:38 38.43823 -103.27857 34930 ft 486 kts 79°
2026-04-20 22:39 38.44844 -103.19331 34936 ft 486 kts 79°
2026-04-20 22:39 38.45691 -103.12233 34933 ft 487 kts 79°
2026-04-20 22:40 38.46865 -103.02302 34936 ft 487 kts 79°
2026-04-20 22:40 38.47704 -102.95138 34932 ft 487 kts 79°
2026-04-20 22:41 38.48692 -102.86634 34931 ft 487 kts 79°
2026-04-20 22:41 38.49685 -102.78077 34933 ft 488 kts 79°
2026-04-20 22:42 38.50674 -102.69497 34930 ft 488 kts 79°
2026-04-20 22:42 38.51655 -102.60908 34936 ft 489 kts 79°
2026-04-20 22:43 38.52632 -102.52311 34936 ft 490 kts 79°
2026-04-20 22:43 38.53610 -102.43694 34935 ft 491 kts 79°
2026-04-20 22:44 38.54579 -102.35059 34937 ft 491 kts 79°
2026-04-20 22:44 38.55543 -102.26418 34934 ft 492 kts 79°
2026-04-20 22:45 38.56504 -102.17751 34935 ft 493 kts 79°
2026-04-20 22:45 38.57457 -102.09068 34938 ft 494 kts 79°
2026-04-20 22:46 38.58405 -102.00370 34942 ft 494 kts 79°
2026-04-20 22:46 38.59347 -101.91662 34945 ft 495 kts 79°
2026-04-20 22:47 38.60283 -101.82928 34944 ft 496 kts 79°
2026-04-20 22:47 38.61215 -101.74196 34947 ft 496 kts 79°
2026-04-20 22:48 38.62143 -101.65448 34941 ft 497 kts 79°
2026-04-20 22:48 38.63062 -101.56682 34951 ft 497 kts 79°
2026-04-20 22:49 38.63979 -101.47919 34945 ft 498 kts 79°
2026-04-20 22:49 38.64892 -101.39136 34950 ft 498 kts 79°
2026-04-20 22:50 38.65796 -101.30331 34955 ft 499 kts 79°
2026-04-20 22:50 38.66687 -101.21531 34969 ft 500 kts 79°
2026-04-20 22:51 38.67576 -101.12725 34988 ft 500 kts 79°
2026-04-20 22:51 38.68474 -101.03893 35001 ft 500 kts 79°
2026-04-20 22:52 38.69362 -100.95054 35008 ft 501 kts 79°
2026-04-20 22:52 38.70238 -100.86185 35004 ft 502 kts 79°
2026-04-20 22:53 38.71110 -100.77328 35006 ft 502 kts 79°
2026-04-20 22:53 38.71974 -100.68444 34997 ft 502 kts 79°
2026-04-20 22:54 38.72830 -100.59562 34986 ft 503 kts 79°
2026-04-20 22:54 38.73678 -100.50668 34984 ft 504 kts 79°
2026-04-20 22:55 38.74524 -100.41748 34989 ft 504 kts 79°
2026-04-20 22:55 38.75366 -100.32832 34986 ft 504 kts 79°
2026-04-20 22:56 38.76213 -100.23912 34991 ft 504 kts 79°
2026-04-20 22:56 38.77039 -100.14990 34986 ft 504 kts 79°
2026-04-20 22:57 38.77849 -100.06056 34989 ft 505 kts 79°
2026-04-20 22:57 38.78663 -99.97126 34992 ft 505 kts 79°
2026-04-20 22:58 38.79475 -99.88195 34993 ft 505 kts 79°
2026-04-20 22:58 38.80276 -99.79237 35000 ft 506 kts 79°
2026-04-20 22:59 38.81075 -99.70297 35004 ft 506 kts 79°
2026-04-20 22:59 38.81867 -99.61362 35018 ft 506 kts 79°
2026-04-20 23:00 38.82657 -99.52377 35036 ft 507 kts 79°
2026-04-20 23:00 38.83437 -99.43333 35039 ft 507 kts 79°
2026-04-20 23:01 38.84198 -99.34385 35046 ft 508 kts 79°
2026-04-20 23:01 38.85256 -99.25476 35038 ft 501 kts 69°
2026-04-20 23:02 38.87187 -99.16903 35045 ft 500 kts 68°
2026-04-20 23:02 38.89109 -99.08339 35035 ft 499 kts 68°
2026-04-20 23:03 38.91014 -98.99777 35040 ft 500 kts 68°
2026-04-20 23:03 38.92923 -98.91172 35042 ft 500 kts 68°
2026-04-20 23:04 38.94825 -98.82573 35039 ft 500 kts 68°
2026-04-20 23:04 38.96710 -98.73974 35043 ft 500 kts 68°
2026-04-20 23:05 38.98596 -98.65372 35032 ft 500 kts 68°
2026-04-20 23:05 39.00479 -98.56782 35037 ft 499 kts 68°
2026-04-20 23:06 39.02348 -98.48201 35030 ft 499 kts 68°
2026-04-20 23:06 39.04211 -98.39600 35032 ft 499 kts 68°
2026-04-20 23:07 39.06076 -98.31000 35031 ft 499 kts 68°
2026-04-20 23:07 39.07924 -98.22392 35039 ft 499 kts 68°
2026-04-20 23:08 39.09776 -98.13769 35039 ft 500 kts 68°
2026-04-20 23:08 39.11622 -98.05141 35047 ft 500 kts 68°
2026-04-20 23:09 39.13454 -97.96499 35042 ft 500 kts 69°
2026-04-20 23:09 39.15280 -97.87856 35046 ft 500 kts 69°
2026-04-20 23:10 39.17101 -97.79196 35047 ft 500 kts 69°
2026-04-20 23:10 39.18915 -97.70549 35051 ft 500 kts 69°
2026-04-20 23:11 39.20728 -97.61892 35047 ft 500 kts 69°
2026-04-20 23:11 39.22534 -97.53233 35055 ft 500 kts 69°
2026-04-20 23:12 39.24332 -97.44563 35049 ft 500 kts 69°
2026-04-20 23:12 39.26121 -97.35898 35052 ft 500 kts 69°
2026-04-20 23:13 39.27894 -97.27285 35045 ft 500 kts 69°
2026-04-20 23:13 39.29670 -97.18614 35050 ft 499 kts 69°
2026-04-20 23:14 39.31443 -97.09946 35053 ft 500 kts 69°
2026-04-20 23:14 39.33207 -97.01265 35069 ft 499 kts 69°
2026-04-20 23:15 39.34965 -96.92585 35075 ft 499 kts 69°
2026-04-20 23:15 39.36710 -96.83907 35082 ft 499 kts 69°
2026-04-20 23:16 39.38451 -96.75235 35078 ft 499 kts 69°
2026-04-20 23:16 39.40191 -96.66565 35083 ft 498 kts 69°
2026-04-20 23:17 39.41922 -96.57877 35074 ft 499 kts 70°
2026-04-20 23:17 39.43635 -96.49187 35080 ft 499 kts 70°
2026-04-20 23:18 39.45356 -96.40495 35078 ft 499 kts 70°
2026-04-20 23:18 39.47074 -96.31798 35086 ft 499 kts 70°
2026-04-20 23:19 39.48777 -96.23093 35073 ft 499 kts 70°
2026-04-20 23:19 39.50471 -96.14379 35089 ft 499 kts 70°
2026-04-20 23:20 39.52158 -96.05659 35080 ft 499 kts 70°
2026-04-20 23:20 39.53554 -95.98433 35092 ft 499 kts 70°
2026-04-20 23:21 39.55235 -95.89709 35103 ft 499 kts 70°
2026-04-20 23:21 39.56903 -95.80992 35095 ft 498 kts 70°
2026-04-20 23:22 39.58835 -95.70855 35088 ft 498 kts 70°
2026-04-20 23:22 39.60230 -95.63547 35096 ft 498 kts 70°
2026-04-20 23:23 39.61879 -95.54874 35100 ft 499 kts 70°
2026-04-20 23:23 39.63531 -95.46078 35100 ft 499 kts 70°
2026-04-20 23:24 39.65153 -95.37392 35106 ft 498 kts 70°
2026-04-20 23:24 39.66779 -95.28643 35102 ft 498 kts 70°
2026-04-20 23:25 39.68405 -95.19909 35111 ft 498 kts 70°
2026-04-20 23:25 39.70028 -95.11164 35113 ft 498 kts 70°
2026-04-20 23:26 39.71637 -95.02423 35122 ft 498 kts 70°
2026-04-20 23:26 39.73235 -94.93673 35121 ft 498 kts 70°
2026-04-20 23:27 39.74825 -94.84907 35125 ft 498 kts 70°
2026-04-20 23:27 39.76413 -94.76137 35124 ft 498 kts 70°
2026-04-20 23:28 39.78006 -94.67380 35126 ft 498 kts 70°
2026-04-20 23:28 39.79587 -94.58615 35121 ft 497 kts 70°
2026-04-20 23:29 39.81142 -94.49908 35165 ft 497 kts 71°
2026-04-20 23:29 39.82701 -94.41154 35177 ft 497 kts 71°
2026-04-20 23:30 39.84263 -94.32399 35186 ft 497 kts 71°
2026-04-20 23:30 39.85807 -94.23626 35177 ft 497 kts 71°
2026-04-20 23:31 39.87341 -94.14868 35172 ft 496 kts 71°
2026-04-20 23:31 39.88872 -94.06105 35156 ft 496 kts 71°
2026-04-20 23:32 39.90402 -93.97345 35144 ft 496 kts 71°
2026-04-20 23:32 39.91922 -93.88587 35132 ft 496 kts 71°
2026-04-20 23:33 39.93436 -93.79816 34815 ft 494 kts 72°
2026-04-20 23:33 39.94181 -93.75474 35020 ft 490 kts 72°
2026-04-20 23:33 39.94923 -93.71146 35125 ft 490 kts 72°
2026-04-20 23:34 39.96405 -93.62470 35145 ft 490 kts 72°
2026-04-20 23:34 39.97882 -93.53795 35153 ft 490 kts 72°
2026-04-20 23:35 40.00078 -93.40798 35158 ft 489 kts 72°
2026-04-20 23:36 40.01488 -93.32404 35160 ft 489 kts 72°
2026-04-20 23:36 40.02933 -93.23739 35163 ft 489 kts 72°
2026-04-20 23:37 40.04374 -93.15077 35167 ft 489 kts 72°
2026-04-20 23:37 40.05810 -93.06408 35174 ft 489 kts 72°
2026-04-20 23:38 40.07240 -92.97725 35184 ft 489 kts 72°
2026-04-20 23:38 40.08659 -92.89040 35179 ft 489 kts 72°
2026-04-20 23:39 40.10074 -92.80354 35189 ft 489 kts 72°
2026-04-20 23:39 40.11490 -92.71670 35190 ft 489 kts 72°
2026-04-20 23:40 40.12897 -92.62977 35195 ft 489 kts 72°
2026-04-20 23:40 40.15101 -92.54727 35189 ft 476 kts 58°
2026-04-20 23:41 40.17948 -92.46917 35194 ft 476 kts 58°
2026-04-20 23:41 40.20790 -92.39094 35198 ft 476 kts 58°
2026-04-20 23:42 40.23614 -92.31259 35196 ft 476 kts 58°
2026-04-20 23:42 40.26431 -92.23416 35198 ft 476 kts 58°
2026-04-20 23:43 40.29237 -92.15568 35199 ft 475 kts 58°
2026-04-20 23:43 40.32044 -92.07732 35197 ft 475 kts 58°
2026-04-20 23:44 40.34850 -91.99884 35198 ft 475 kts 58°
2026-04-20 23:44 40.37644 -91.92039 35201 ft 475 kts 58°
2026-04-20 23:45 40.40425 -91.84181 35206 ft 475 kts 58°
2026-04-20 23:45 40.43196 -91.76320 35212 ft 475 kts 58°
2026-04-20 23:46 40.45931 -91.68439 35213 ft 475 kts 58°
2026-04-20 23:46 40.48648 -91.60545 35210 ft 474 kts 58°
2026-04-20 23:47 40.51360 -91.52664 35211 ft 474 kts 58°
2026-04-20 23:47 40.54080 -91.44749 35210 ft 474 kts 58°
2026-04-20 23:48 40.56781 -91.36847 35213 ft 473 kts 58°
2026-04-20 23:48 40.59472 -91.28953 35213 ft 473 kts 58°
2026-04-20 23:49 40.62164 -91.21065 35214 ft 472 kts 58°
2026-04-20 23:49 40.64851 -91.13173 35236 ft 472 kts 58°
2026-04-20 23:50 40.67506 -91.05316 35229 ft 472 kts 58°
2026-04-20 23:50 40.70181 -90.97375 35228 ft 472 kts 58°
2026-04-20 23:51 40.72826 -90.89527 35228 ft 471 kts 58°
2026-04-20 23:51 40.75493 -90.81579 35229 ft 471 kts 58°
2026-04-20 23:52 40.78141 -90.73670 35242 ft 471 kts 58°
2026-04-20 23:52 40.80781 -90.65768 35240 ft 470 kts 58°
2026-04-20 23:53 40.83411 -90.57869 35246 ft 470 kts 58°
2026-04-20 23:53 40.86037 -90.49960 35249 ft 470 kts 58°
2026-04-20 23:54 40.88657 -90.42045 35249 ft 470 kts 58°
2026-04-20 23:54 40.91270 -90.34120 35255 ft 470 kts 58°
2026-04-20 23:55 40.93862 -90.26237 35252 ft 470 kts 58°
2026-04-20 23:55 40.95166 -90.22266 35085 ft 470 kts 58°
2026-04-20 23:55 40.96464 -90.18306 34843 ft 468 kts 57°
2026-04-20 23:55 40.97758 -90.14352 34608 ft 467 kts 57°
2026-04-20 23:56 40.99048 -90.10405 34380 ft 467 kts 57°
2026-04-20 23:56 41.00338 -90.06460 34132 ft 467 kts 57°
2026-04-20 23:56 41.01627 -90.02512 33865 ft 467 kts 57°
2026-04-20 23:56 41.02913 -89.98566 33600 ft 467 kts 57°
2026-04-20 23:57 41.04218 -89.94634 33336 ft 466 kts 56°
2026-04-20 23:57 41.05591 -89.90753 33073 ft 465 kts 55°
2026-04-20 23:57 41.07014 -89.86912 32817 ft 464 kts 54°
2026-04-20 23:57 41.08440 -89.83150 32565 ft 464 kts 54°
2026-04-20 23:58 41.09911 -89.79266 32307 ft 465 kts 54°
2026-04-20 23:58 41.11351 -89.75421 32058 ft 466 kts 54°
2026-04-20 23:58 41.12773 -89.71562 31811 ft 466 kts 55°
2026-04-20 23:58 41.14187 -89.67678 31558 ft 467 kts 55°
2026-04-20 23:59 41.15574 -89.63839 31320 ft 468 kts 56°
2026-04-20 23:59 41.16978 -89.59944 31077 ft 468 kts 56°
2026-04-20 23:59 41.18383 -89.56042 30838 ft 469 kts 56°
2026-04-20 23:59 41.19793 -89.52131 30599 ft 469 kts 56°
2026-04-21 00:00 41.21201 -89.48226 30357 ft 470 kts 56°
2026-04-21 00:00 41.22616 -89.44304 30090 ft 471 kts 56°
2026-04-21 00:00 41.24030 -89.40380 29805 ft 471 kts 56°
2026-04-21 00:00 41.25447 -89.36450 29528 ft 472 kts 56°
2026-04-21 00:01 41.26868 -89.32509 29250 ft 473 kts 56°
2026-04-21 00:01 41.28307 -89.28515 28978 ft 473 kts 56°
2026-04-21 00:01 41.29732 -89.24640 28706 ft 473 kts 54°
2026-04-21 00:01 41.31265 -89.20708 28436 ft 472 kts 53°
2026-04-21 00:02 41.32825 -89.16863 28173 ft 471 kts 52°
2026-04-21 00:02 41.34402 -89.13041 27903 ft 472 kts 52°
2026-04-21 00:02 41.35978 -89.09211 27641 ft 472 kts 52°
2026-04-21 00:02 41.37015 -89.06667 27474 ft 472 kts 53°
2026-04-21 00:03 41.38567 -89.02817 27219 ft 471 kts 53°
2026-04-21 00:03 41.40098 -88.98972 26971 ft 469 kts 53°
2026-04-21 00:03 41.41616 -88.95133 26736 ft 468 kts 53°
2026-04-21 00:03 41.43124 -88.91306 26487 ft 466 kts 53°
2026-04-21 00:04 41.44629 -88.87488 26241 ft 464 kts 53°
2026-04-21 00:04 41.46124 -88.83697 26006 ft 462 kts 53°
2026-04-21 00:04 41.47618 -88.79909 25764 ft 460 kts 53°
2026-04-21 00:04 41.49101 -88.76144 25472 ft 456 kts 53°
2026-04-21 00:05 41.50577 -88.72420 24853 ft 450 kts 52°
2026-04-21 00:05 41.52250 -88.69012 24253 ft 436 kts 44°
2026-04-21 00:05 41.53944 -88.66100 23707 ft 432 kts 43°
2026-04-21 00:05 41.55770 -88.62939 23082 ft 427 kts 44°
2026-04-21 00:06 41.57558 -88.59814 22512 ft 420 kts 44°
2026-04-21 00:06 41.59314 -88.56730 21945 ft 415 kts 44°
2026-04-21 00:06 41.61048 -88.53680 21380 ft 410 kts 44°
2026-04-21 00:06 41.62767 -88.50661 20846 ft 406 kts 44°
2026-04-21 00:07 41.64470 -88.47668 20307 ft 403 kts 44°
2026-04-21 00:07 41.66163 -88.44696 20131 ft 404 kts 44°
2026-04-21 00:07 41.67889 -88.41687 19449 ft 407 kts 44°
2026-04-21 00:07 41.69559 -88.38743 18963 ft 383 kts 44°
2026-04-21 00:08 41.71136 -88.36064 18345 ft 360 kts 39°
2026-04-21 00:08 41.72878 -88.33774 17856 ft 348 kts 32°
2026-04-21 00:08 41.74722 -88.31604 17179 ft 348 kts 33°
2026-04-21 00:08 41.76507 -88.29482 16766 ft 348 kts 33°
2026-04-21 00:09 41.78344 -88.27291 16330 ft 348 kts 33°
2026-04-21 00:09 41.80139 -88.25137 15904 ft 345 kts 33°
2026-04-21 00:09 41.81922 -88.22993 15452 ft 344 kts 34°
2026-04-21 00:09 41.83675 -88.20882 15022 ft 342 kts 34°
2026-04-21 00:10 41.85361 -88.18606 14559 ft 348 kts 43°
2026-04-21 00:10 41.86765 -88.15882 14086 ft 354 kts 53°
2026-04-21 00:10 41.87774 -88.12885 13546 ft 361 kts 65°
2026-04-21 00:10 41.88379 -88.09598 13054 ft 366 kts 76°
2026-04-21 00:11 41.88537 -88.06166 12527 ft 370 kts 85°
2026-04-21 00:11 41.88523 -88.02723 12006 ft 369 kts 86°
2026-04-21 00:11 41.88508 -87.99277 11457 ft 369 kts 86°
2026-04-21 00:11 41.88494 -87.95844 10949 ft 367 kts 86°
2026-04-21 00:12 41.88477 -87.92518 10818 ft 342 kts 86°
2026-04-21 00:12 41.88454 -87.89433 10735 ft 325 kts 85°
2026-04-21 00:12 41.88437 -87.86406 10611 ft 324 kts 85°
2026-04-21 00:12 41.88426 -87.83402 10462 ft 321 kts 85°
2026-04-21 00:13 41.88421 -87.80409 10194 ft 322 kts 85°
2026-04-21 00:13 41.88421 -87.77424 9988 ft 317 kts 85°
2026-04-21 00:13 41.88421 -87.74466 9999 ft 317 kts 85°
2026-04-21 00:13 41.88422 -87.71514 9991 ft 317 kts 85°
2026-04-21 00:14 41.88422 -87.68530 9511 ft 321 kts 85°
2026-04-21 00:14 41.88416 -87.65523 9037 ft 322 kts 86°
2026-04-21 00:14 41.88409 -87.62518 8586 ft 323 kts 86°
2026-04-21 00:14 41.88399 -87.59501 8128 ft 324 kts 86°
2026-04-21 00:15 41.88393 -87.56475 7678 ft 324 kts 86°
2026-04-21 00:15 41.88395 -87.53458 7238 ft 324 kts 86°
2026-04-21 00:15 41.88410 -87.50435 6798 ft 324 kts 87°
2026-04-21 00:15 41.88439 -87.47418 6344 ft 323 kts 87°
2026-04-21 00:16 41.88496 -87.44405 5879 ft 322 kts 87°
2026-04-21 00:16 41.88591 -87.41412 5423 ft 320 kts 87°
2026-04-21 00:16 41.88724 -87.38442 4963 ft 318 kts 86°
2026-04-21 00:16 41.89188 -87.35561 4483 ft 317 kts 66°
2026-04-21 00:17 41.90460 -87.33189 4083 ft 313 kts 41°
2026-04-21 00:17 41.92305 -87.31824 4013 ft 296 kts 14°
2026-04-21 00:17 41.94273 -87.31687 4022 ft 276 kts 346°
2026-04-21 00:17 41.95965 -87.32720 4030 ft 266 kts 317°
2026-04-21 00:18 41.97042 -87.34636 4027 ft 249 kts 287°
2026-04-21 00:18 41.97313 -87.36830 4027 ft 234 kts 268°
2026-04-21 00:18 41.97310 -87.39010 4022 ft 233 kts 266°
2026-04-21 00:18 41.97275 -87.41189 4025 ft 233 kts 265°
2026-04-21 00:19 41.97241 -87.43366 4021 ft 233 kts 268°
2026-04-21 00:19 41.97341 -87.45548 4019 ft 234 kts 272°
2026-04-21 00:19 41.97495 -87.47732 4024 ft 235 kts 273°
2026-04-21 00:19 41.97666 -87.49913 4022 ft 235 kts 273°
2026-04-21 00:20 41.97836 -87.52095 4018 ft 235 kts 273°
2026-04-21 00:20 41.97999 -87.54228 4022 ft 235 kts 273°
2026-04-21 00:20 41.98162 -87.56413 4015 ft 234 kts 272°
2026-04-21 00:20 41.98319 -87.58522 4008 ft 219 kts 272°
2026-04-21 00:21 41.98468 -87.60536 4002 ft 215 kts 273°
2026-04-21 00:21 41.98682 -87.62524 4003 ft 215 kts 273°
2026-04-21 00:21 41.98780 -87.64517 3996 ft 211 kts 268°
2026-04-21 00:21 41.98801 -87.66417 4018 ft 199 kts 267°
2026-04-21 00:22 41.98805 -87.68274 4000 ft 198 kts 267°
2026-04-21 00:22 41.98809 -87.70122 3817 ft 194 kts 266°
2026-04-21 00:22 41.98814 -87.71872 3598 ft 179 kts 266°
2026-04-21 00:22 41.98818 -87.73473 3389 ft 162 kts 265°
2026-04-21 00:23 41.98820 -87.74921 3174 ft 151 kts 265°
2026-04-21 00:23 41.98821 -87.76305 2924 ft 146 kts 265°
2026-04-21 00:23 41.98822 -87.77665 2695 ft 145 kts 264°
2026-04-21 00:23 41.98823 -87.79015 2463 ft 144 kts 264°
2026-04-21 00:24 41.98824 -87.80360 2221 ft 144 kts 264°
2026-04-21 00:24 41.98826 -87.81700 1993 ft 143 kts 265°
2026-04-21 00:24 41.98827 -87.83041 1755 ft 144 kts 265°
2026-04-21 00:24 41.98828 -87.84386 1503 ft 144 kts 265°
2026-04-21 00:25 41.98828 -87.85748 1253 ft 146 kts 265°
2026-04-21 00:25 41.98828 -87.87112 1029 ft 146 kts 267°
2026-04-21 00:25 41.98828 -87.88471 813 ft 145 kts 267°
2026-04-21 00:25 41.98835 -87.89821 680 ft 144 kts 265°
2026-04-21 00:26 41.98814 -87.90990 670 ft 105 kts 270°
2026-04-21 00:26 41.98823 -87.91777 668 ft 54 kts 271°
2026-04-21 00:26 41.98826 -87.92197 671 ft 32 kts 271°
2026-04-21 00:26 41.98813 -87.92379 670 ft 14 kts 223°
2026-04-21 00:27 41.98723 -87.92406 670 ft 11 kts 182°
2026-04-21 00:27 41.98606 -87.92405 669 ft 22 kts 180°
2026-04-21 00:27 41.98460 -87.92408 667 ft 25 kts 181°
2026-04-21 00:27 41.98330 -87.92408 667 ft 9 kts 178°
2026-04-21 00:28 41.98287 -87.92321 668 ft 18 kts 90°
2026-04-21 00:28 41.98285 -87.92099 668 ft 29 kts 90°
2026-04-21 00:28 41.98287 -87.91858 670 ft 30 kts 89°
2026-04-21 00:28 41.98288 -87.91640 670 ft 21 kts 88°
2026-04-21 00:29 41.98288 -87.91396 671 ft 31 kts 90°
2026-04-21 00:29 41.98288 -87.91177 670 ft 27 kts 90°
2026-04-21 00:29 41.98287 -87.90870 669 ft 38 kts 90°
2026-04-21 00:29 41.98287 -87.90508 668 ft 28 kts 89°
2026-04-21 00:30 41.98289 -87.90201 669 ft 37 kts 88°
2026-04-21 00:30 41.98290 -87.89843 670 ft 22 kts 90°
2026-04-21 00:30 41.98293 -87.89652 670 ft 20 kts 88°
2026-04-21 00:30 41.98290 -87.89446 670 ft 18 kts 91°
2026-04-21 00:31 41.98229 -87.89264 669 ft 18 kts 138°
2026-04-21 00:31 41.98107 -87.89250 669 ft 24 kts 225°
2026-04-21 00:31 41.98008 -87.89413 669 ft 21 kts 230°
2026-04-21 00:31 41.97929 -87.89515 669 ft 17 kts 203°
2026-04-21 00:32 41.97798 -87.89526 669 ft 16 kts 179°
2026-04-21 00:32 41.97654 -87.89524 669 ft 25 kts 179°
2026-04-21 00:32 41.97497 -87.89522 669 ft 17 kts 180°
2026-04-21 00:32 41.97365 -87.89560 668 ft 18 kts 210°
2026-04-21 00:33 41.97295 -87.89670 669 ft 16 kts 240°
2026-04-21 00:33 41.97270 -87.89779 669 ft 16 kts 291°
2026-04-21 00:33 41.97335 -87.89837 669 ft 10 kts 353°
2026-04-21 00:33 41.97392 -87.89793 669 ft 6 kts 36°
2026-04-21 00:34 41.97414 -87.89771 667 ft 0 kts 37°